OBJECT Z

基本信息
目录编号:
67271
目录名称:
OBJECT Z
国际标识:
2025-313Z
轨道中心:
EARTH
物体状态:
在轨
发射日期:
2025-12-28 UTC
国别:
(TBD)
轨道信息
数据来源: 国际轨道数据
星历时间: 2026-09-03T12:52:56+0800
半长轴: 6877.529km
偏心率: 0.0016401
轨道倾角: 97.388°
近地点辐角: 88.813°
升交点赤经: 319.292°
平近点角: 271.499°
近地点: 488.112km
远地点: 510.672km
周期: 94.604分钟
每日圈数: 15.221386
详细信息
发射场:
VOSTO
轨道高度:
LEO
数据来源:
AOE Working Group
参考系:
TEME
时间系统:
UTC
历元类型:
SGP4
2D轨道图
3D轨道图
轨道高度分析图
轨道倾角分析图
轨道综合分析图
查看轨道综合分析图